Simultaneous Nadir Overpasses (SNOs) Predictions

Prediction of SNOs between AQUA and METOP-B Satellite Orbit:

Table of predicted SNOs for the next 14.0 days since TLE Epoch: 1/30/2016
Index Date (AQUA) Time (AQUA) Lat,Lon (AQUA) SZA (AQUA ) Date (METOP-B) Time (METOP-B) Lat,Lon (METOP-B) SZA (METOP-B ) Distance(km) Time Diff (sec)
1 02/01/2016 11:17:32 73.82, 4.83 91.11 02/01/2016 11:16:46 73.81, 4.85 91.11 1.94 46
2 02/01/2016 12:06:59 -73.90, 172.31 88.82 02/01/2016 12:07:26 -73.89, 172.37 88.84 2.17 27
3 02/04/2016 06:51:45 73.80, 71.33 90.27 02/04/2016 06:51:03 73.81, 71.28 90.30 2.54 42
4 02/04/2016 07:41:12 -73.87,-121.18 89.67 02/04/2016 07:41:43 -73.90,-121.20 89.64 2.99 31
5 02/07/2016 02:26:00 73.84, 137.69 89.46 02/07/2016 02:25:21 73.82, 137.71 89.46 1.72 39
6 02/07/2016 03:15:27 -73.91, -54.82 90.48 02/07/2016 03:16:01 -73.90, -54.76 90.48 1.88 34
7 02/09/2016 22:00:14 73.84,-155.87 88.58 02/09/2016 21:59:39 73.83,-155.85 88.58 0.94 35
8 02/09/2016 22:49:41 -73.91, 11.62 91.36 02/09/2016 22:50:19 -73.91, 11.68 91.36 1.83 38
9 02/12/2016 17:34:27 73.85, -89.45 87.68 02/12/2016 17:33:56 73.84, -89.42 87.67 2.00 31
10 02/12/2016 18:23:54 -73.92, 78.04 92.27 02/12/2016 18:24:36 -73.92, 78.11 92.27 2.32 42




NCC Satellite Simultaneous Nadir Overpasses (SNOs) Prediction Service
